DW9636 Weather Reports


Display with metric or nautical units.
time (UTC)temp
F
wind
direction
speed
MPH
gust
MPH
rain 1hr
in
rain 24hr
in
rain mn
in
humidity
%
barometer
mb
20260508191559 65 136 1.0 0.0 0.00 0.00 0.00 28 1015.8
20260508190053 64 193 1.0 0.0 0.00 0.00 0.00 28 1015.8
20260508184549 62 219 1.0 0.0 0.00 0.00 0.00 29 1016.1
20260508183047 61 326 1.0 0.0 0.00 0.00 0.00 29 1016.1
20260508181606 60 198 0.0 0.0 0.00 0.00 0.00 31 1016.1
20260508180053 61 207 0.0 0.0 0.00 0.00 0.00 32 1016.0
20260508174546 61 252 1.0 0.0 0.00 0.00 0.00 32 1016.0
20260508173045 60 219 1.0 0.0 0.00 0.00 0.00 32 1016.1
20260508171543 60 194 1.0 0.0 0.00 0.00 0.00 32 1016.0
20260508170042 60 192 1.0 0.0 0.00 0.00 0.00 31 1015.8
20260508164538 59 291 0.0 0.0 0.00 0.00 0.00 42 1015.8
20260508163033 57 309 0.0 0.0 0.00 0.00 0.00 45 1015.8
20260508161532 54 309 0.0 0.0 0.00 0.00 0.00 52 1016.2
20260508160029 51 309 0.0 0.0 0.00 0.00 0.00 62 1016.1
20260508154520 46 309 0.0 0.0 0.00 0.00 0.00 72 1016.0
20260508153017 41 309 0.0 0.0 0.00 0.00 0.00 79 1016.1
20260508151517 37 309 0.0 0.0 0.00 0.00 0.00 86 1016.0
20260508150016 36 309 0.0 0.0 0.00 0.00 0.00 87 1016.0
20260508144514 35 309 0.0 0.0 0.00 0.00 0.00 88 1015.8
20260508143021 34 309 0.0 0.0 0.00 0.00 0.00 89 1015.7
20260508141513 33 309 0.0 0.0 0.00 0.00 0.00 91 1015.6
20260508140011 32 309 0.0 0.0 0.00 0.00 0.00 92 1015.7
20260508134509 30 309 0.0 0.0 0.00 0.00 0.00 91 1015.6
20260508133013 29 309 0.0 0.0 0.00 0.00 0.00 91 1015.6
20260508131506 29 309 0.0 0.0 0.00 0.00 0.00 90 1015.4
20260508130004 28 309 0.0 0.0 0.00 0.00 0.00 90 1015.2
20260508124504 29 309 0.0 0.0 0.00 0.00 0.00 89 1015.0
20260508123108 29 309 0.0 0.0 0.00 0.00 0.00 89 1014.8
20260508121559 29 309 0.0 0.0 0.00 0.00 0.00 89 1014.9
20260508120057 29 309 0.0 0.0 0.00 0.00 0.00 88 1014.7
20260508114555 30 309 0.0 0.0 0.00 0.00 0.00 87 1014.6
20260508113053 31 309 0.0 0.0 0.00 0.00 0.00 86 1014.7
20260508111553 31 309 0.0 0.0 0.00 0.00 0.00 87 1014.6
20260508110049 31 309 0.0 0.0 0.00 0.00 0.00 87 1014.5
20260508104545 32 309 0.0 0.0 0.00 0.00 0.00 85 1014.3
20260508103042 32 309 0.0 0.0 0.00 0.00 0.00 85 1014.2
20260508101540 33 309 0.0 0.0 0.00 0.00 0.00 84 1014.2
20260508100036 34 309 0.0 0.0 0.00 0.00 0.00 83 1014.2
20260508094534 35 309 0.0 0.0 0.00 0.00 0.00 83 1014.0
20260508093032 35 309 0.0 0.0 0.00 0.00 0.00 83 1014.1
20260508091529 36 309 0.0 0.0 0.00 0.00 0.00 82 1014.0
20260508090029 37 309 0.0 0.0 0.00 0.00 0.00 81 1014.1
20260508084524 37 309 0.0 0.0 0.00 0.00 0.00 81 1014.0
20260508083022 38 309 0.0 0.0 0.00 0.00 0.00 80 1014.0
20260508081523 39 309 0.0 0.0 0.00 0.00 0.00 78 1014.2
20260508080016 39 309 0.0 0.0 0.00 0.00 0.00 77 1014.1
20260508074515 40 309 0.0 0.0 0.00 0.00 0.00 75 1014.2
20260508073011 41 309 0.0 0.0 0.00 0.00 0.00 75 1014.2
20260508071510 42 309 0.0 0.0 0.00 0.00 0.00 74 1014.1
20260508070005 43 309 0.0 0.0 0.00 0.00 0.00 72 1014.0
20260508064504 44 309 0.0 0.0 0.00 0.00 0.00 71 1013.9
20260508063005 45 309 0.0 0.0 0.00 0.00 0.00 69 1013.9
20260508061505 45 309 0.0 0.0 0.00 0.00 0.00 69 1013.7
20260508060003 46 309 0.0 0.0 0.00 0.00 0.00 67 1013.6
20260508054502 47 309 0.0 0.0 0.00 0.00 0.00 65 1013.6
20260508053002 49 309 0.0 0.0 0.00 0.00 0.00 63 1013.4
20260508051502 50 309 0.0 0.0 0.00 0.00 0.00 61 1013.3
20260508044609 51 309 0.0 0.0 0.00 0.00 0.00 58 1013.1
20260508043112 52 309 0.0 0.0 0.00 0.00 0.00 57 1013.2
20260508041559 54 309 0.0 0.0 0.00 0.00 0.00 52 1013.1
20260508040104 57 309 0.0 0.0 0.00 0.00 0.00 51 1013.0
20260508034559 59 309 0.0 0.0 0.00 0.00 0.00 46 1012.7
20260508033059 60 309 0.0 0.0 0.00 0.00 0.00 46 1012.6
20260508031558 61 309 0.0 0.0 0.00 0.00 0.00 43 1012.4
20260508024600 63 288 0.0 0.0 0.00 0.00 0.00 40 1012.0
20260508023057 64 285 0.0 0.0 0.00 0.00 0.00 40 1011.9
20260508021556 65 285 0.0 0.0 0.00 0.00 0.00 39 1011.8
20260508020055 66 267 0.0 0.0 0.00 0.00 0.00 37 1011.7
20260508014555 67 311 0.0 0.0 0.00 0.00 0.00 36 1011.8
20260508013055 68 295 0.0 0.0 0.00 0.00 0.00 35 1011.8
20260508011605 69 251 1.0 0.0 0.00 0.00 0.00 34 1011.8
20260508010053 70 209 0.0 0.0 0.00 0.00 0.00 33 1011.8
20260508004555 70 300 1.0 0.0 0.00 0.00 0.00 31 1011.8
20260508003053 71 296 1.0 0.0 0.00 0.00 0.00 30 1011.7
20260508001552 72 324 1.0 0.0 0.00 0.00 0.00 30 1011.5
20260508000051 72 312 1.0 0.0 0.00 0.00 0.00 29 1011.4
20260507234600 73 311 1.0 0.0 0.00 0.00 0.00 27 1011.4
20260507233049 73 325 1.0 0.0 0.00 0.00 0.00 27 1011.4
20260507231553 74 290 1.0 0.0 0.00 0.00 0.00 25 1011.4
20260507230051 74 327 1.0 0.0 0.00 0.00 0.00 25 1011.6
20260507224549 75 277 1.0 0.0 0.00 0.00 0.00 23 1011.7
20260507223049 75 306 1.0 0.0 0.00 0.00 0.00 23 1011.9
20260507221548 75 311 1.0 0.0 0.00 0.00 0.00 21 1011.9
20260507220040 75 171 2.0 0.0 0.00 0.00 0.00 21 1012.1
20260507214540 75 300 2.0 0.0 0.00 0.00 0.00 20 1012.1
20260507213040 75 308 2.0 0.0 0.00 0.00 0.00 20 1012.2
20260507211539 76 291 1.0 0.0 0.00 0.00 0.00 19 1012.3
20260507210037 76 350 1.0 0.0 0.00 0.00 0.00 20 1012.2
20260507204535 75 307 1.0 0.0 0.00 0.00 0.00 20 1012.4
20260507203040 74 351 1.0 0.0 0.00 0.00 0.00 19 1012.6
20260507201537 74 333 1.0 0.0 0.00 0.00 0.00 19 1012.8
20260507200043 74 319 1.0 0.0 0.00 0.00 0.00 20 1012.8
20260507194527 73 304 1.0 0.0 0.00 0.00 0.00 20 1012.8
20260507193025 72 360 2.0 0.0 0.00 0.00 0.00 22 1013.0